Location: *
(0.1100°N, 5.5000°E)
Time: 23:36:10
(UTC+00:00)

FUSE - Visible Passes

Search period start: 19 July 2024 00:00
Search period end: 29 July 2024 00:00
Orbit: 739 x 754 km, 25.0° (Epoch: 19 July)

Date Brightness Start Highest point End Pass type
(mag) Time Alt. Az. Time Alt. Az. Time Alt. Az.
19 Jul 6.9 02:32:29 11° ENE 02:32:29 11° ENE 02:32:39 10° ENE visible
19 Jul 5.2 04:12:10 24° NW 04:13:37 28° NNW 04:18:08 10° NNE visible
20 Jul 5.4 03:27:34 29° N 03:27:34 29° N 03:30:54 10° NE visible
20 Jul 6.3 05:11:37 10° NNW 05:12:46 11° NNW 05:13:55 10° N visible
21 Jul 6.7 02:42:57 13° NE 02:42:57 13° NE 02:43:34 10° NE visible
21 Jul 6.2 04:22:37 10° NW 04:25:06 13° NNW 04:27:35 10° N visible
22 Jul 6.0 03:37:58 16° NNW 03:37:58 16° NNW 03:40:43 10° NNE visible
23 Jul 6.7 02:53:18 11° NNE 02:53:18 11° NNE 02:53:42 10° NNE visible
